This demonstration page uses our WeatherBlox Daily Observations layout. Learn more.

Left ArrowRight Arrow

Hourly Observations for November 7, 2018

Temp ( °F °C ) Dew Point ( °F °C ) Humidity (%) Winds ( mph kmh ) Pressure ( in mb ) Visibility ( mi km ) Precip ( " mm )
12:52 am 00:52 Clear 32 0 24 -4.4 73 73 NW 13 20 30.20 1023 10 16 0.00 0.00
1:52 am 01:52 Clear 31 -0.6 22 -5.6 69 69 WNW 13 20 30.22 1024 10 16 0.00 0.00
2:52 am 02:52 Clear 30 -1.1 20 -6.7 66 66 WNW 10 17 30.25 1024 10 16 0.00 0.00
3:52 am 03:52 Clear 28 -2.2 20 -6.7 72 72 NW 9 15 30.25 1025 10 16 0.00 0.00
4:52 am 04:52 Clear 28 -2.2 20 -6.7 72 72 NW 14 22 30.28 1025 10 16 0.00 0.00
5:52 am 05:52 Clear 27 -2.8 19 -7.2 72 72 NW 13 20 30.30 1026 10 16 0.00 0.00
6:52 am 06:52 Mostly Clear 26 -3.3 19 -7.2 75 75 NW 9 15 30.31 1027 10 16 0.00 0.00
7:52 am 07:52 Mostly Sunny 27 -2.8 19 -7.2 72 72 NW 12 19 30.33 1027 10 16 0.00 0.00
8:52 am 08:52 Mostly Sunny 29 -1.7 20 -6.7 69 69 NNW 17 28 30.34 1027 10 16 0.00 0.00
9:52 am 09:52 Mostly Sunny 31 -0.6 20 -6.7 64 64 NNW 14 22 30.36 1028 10 16 0.00 0.00
10:52 am 10:52 Mostly Sunny 33 0.6 21 -6.1 61 61 N 12 19 30.36 1028 10 16 0.00 0.00
11:52 am 11:52 Partly Cloudy 34 1.1 22 -5.6 61 61 N 13 20 30.36 1028 10 16 0.00 0.00
12:52 pm 12:52 Partly Cloudy 35 1.7 23 -5 61 61 N 15 24 30.34 1027 10 16 0.00 0.00
1:52 pm 13:52 Partly Cloudy 36 2.2 23 -5 59 59 N 15 24 30.32 1027 10 16 0.00 0.00
2:52 pm 14:52 Partly Cloudy 35 1.7 23 -5 61 61 N 13 20 30.34 1027 10 16 0.00 0.00
3:52 pm 15:52 Partly Cloudy 34 1.1 23 -5 64 64 N 10 17 30.35 1028 10 16 0.00 0.00
4:52 pm 16:52 Mostly Cloudy 32 0 23 -5 69 69 NW 8 13 30.36 1028 10 16 0.00 0.00
5:52 pm 17:52 Mostly Cloudy 32 0 23 -5 69 69 N 8 13 30.37 1028 10 16 0.00 0.00
6:52 pm 18:52 Cloudy 32 0 23 -5 69 69 NNE 7 11 30.37 1029 10 16 0.00 0.00
7:52 pm 19:52 Cloudy 31 -0.6 22 -5.6 69 69 NE 7 11 30.39 1029 10 16 0.00 0.00
8:52 pm 20:52 Cloudy 31 -0.6 22 -5.6 69 69 NNE 3 6 30.40 1030 10 16 0.00 0.00
9:52 pm 21:52 Cloudy 31 -0.6 22 -5.6 69 69 VRB 3 6 30.42 1030 10 16 0.00 0.00
10:52 pm 22:52 Cloudy 30 -1.1 22 -5.6 72 72 NNE 6 9 30.41 1030 10 16 0.00 0.00
11:52 pm 23:52 Cloudy 30 -1.1 22 -5.6 72 72 N 5 7 30.40 1030 10 16 0.00 0.00

Powered by AerisWeather